Location: Auttagershofen
(48.1940°N, 10.0237°E)
Time: 18:02:10
(UTC+00:00)

COSMO-SKYMED 1 - Pass Details

Date: 18 January 2026
Orbit: 577 x 579 km, 97.9° (Epoch: 18 February)

Event Time Altitude Azimuth Distance (km) Brightness Sun altitude
Rises 05:57:32 0° 208° (SSW) 2,789 5.8 -10.8°
Reaches altitude 10° 06:00:23 10° 230° (SW) 1,896 4.8 -10.3°
Maximum altitude 06:02:59 16° 269° (W) 1,535 4.0 -9.9°
Enters shadow 06:04:52 13° 300° (WNW) 1,737 4.2 -9.6°
